sat.trackr.live / text

‹ back to catalog

QIANFAN-127

NORAD 69073 · 2026-104A

PAYLOAD ACTIVE UNKNOWN

§ Identity

Operator
Country
PRC
Launch date
2026-05-12
Launch site
TAISC
Launch vehicle
Mass (kg)
RCS (m²)

External: N2YO · Heavens-Above · Gunter

§ Orbital elements

Epoch: 2026-05-25T04:21:46.763136Z

Period
101.18 min
Inclination
88.9868°
Eccentricity
0.0004478
Mean motion
14.23183314 rev/d
Perigee alt
811.4 km
Apogee alt
817.8 km
Semi-major
7,192.7 km
B*
3.2197e-5
RAAN
344.2462°
Arg perigee
171.4080°
Mean anomaly
188.7189°
Rev number
182

§ Raw data

QIANFAN-1271 69073U 26104A   26145.18179124  .00000087  00000+0  32197-4 0  99992 69073  88.9868 344.2462 0004478 171.4080 188.7189 14.23183314  1826

JSON: /api/v1/satellites/69073 · /tle

For live sub-satellite position, see the globe view (requires WebGL).

§ Visibility from observer

Set your observer location to see the next 7 days of passes ≥ 10°. The values pass through the URL so the page stays shareable.

No JS? Fill the form by hand. The geolocation button needs JavaScript.